This is the latest recevied weather packets stored in our database for station/object EB1TK-13. If no packets are shown the sender has not sent any weather packets the latest 10 day(s).
| Time | Temp. | Humidity | Pressure | Rain* | Wind** | Luminosity | Snow |
|---|---|---|---|---|---|---|---|
| 1777452136 | 14.44° C | 92% | 1007.8 hPa | 0 mm | - | - | - |
| 1777451536 | 14.44° C | 92% | 1007.8 hPa | 0 mm | - | - | - |
| 1777450937 | 14.44° C | 92% | 1007.8 hPa | 0 mm | - | - | - |
| 1777450337 | 14.44° C | 92% | 1007.8 hPa | 0 mm | - | - | - |
| 1777449735 | 14.44° C | 92% | 1008 hPa | 0 mm | - | - | - |
| 1777449135 | 14.44° C | 93% | 1008 hPa | 0 mm | - | - | - |
| 1777448536 | 14.44° C | 93% | 1008 hPa | 0 mm | - | - | - |
| 1777447936 | 14.44° C | 93% | 1008.1 hPa | 0 mm | - | - | - |
| 1777447337 | 13.89° C | 94% | 1008.1 hPa | 0 mm | - | - | - |
| 1777446737 | 13.89° C | 93% | 1008.1 hPa | 0 mm | - | - | - |
| 1777446137 | 13.33° C | 93% | 1008.1 hPa | 0 mm | - | - | - |
| 1777445535 | 13.33° C | 94% | 1008 hPa | 0 mm | - | - | - |
| 1777444936 | 13.33° C | 94% | 1007.9 hPa | 0 mm | - | - | - |
| 1777444336 | 13.33° C | 94% | 1007.9 hPa | 0 mm | - | - | - |
| 1777443736 | 13.33° C | 94% | 1007.9 hPa | 0 mm | - | - | - |
| 1777443137 | 13.33° C | 94% | 1008 hPa | 0 mm | - | - | - |
| 1777442537 | 12.78° C | 93% | 1007.9 hPa | 0 mm | - | - | - |
| 1777441938 | 12.78° C | 93% | 1007.9 hPa | 0 mm | - | - | - |
| 1777441335 | 12.78° C | 92% | 1008 hPa | 0 mm | - | - | - |
| 1777440735 | 13.33° C | 91% | 1007.8 hPa | 0 mm | - | - | - |
| 1777440136 | 13.89° C | 91% | 1007.9 hPa | 0 mm | - | - | - |
| 1777439536 | 13.89° C | 91% | 1008 hPa | 0 mm | - | - | - |
| 1777438937 | 13.89° C | 91% | 1008.1 hPa | 0 mm | - | - | - |
| 1777438337 | 13.89° C | 91% | 1008.2 hPa | 0 mm | - | - | - |
| 1777437735 | 13.89° C | 91% | 1008.3 hPa | 0 mm | - | - | - |
* Rain latest hour (hover to see other rain measurements)
** Current wind speed in m/s (hover to see current wind gust speed)